Content
SEND FEEDBACK

Daily
Averages
Monthly
Summary
United States of America

CHICAGO, ILLINOIS


Home > North America > United States > Illinois
Elevation: 674 feet     Latitude: 41 59N     Longitude: 087 54W

WEATHER
 
SELECT A DAY
Number of Records: 199,667;   Date Range: 7/8/95 - 12/21/14
 
SHARE

PRINT THIS DATA

[ ← Previous Day ]
WEATHER ALMANAC - FEBRUARY 3, 2014
[ Next Day → ]
[ °C ]   °F
Weather ElementAverageHighLow
Temperature11.5 °F23 °F (3:52 pm)-0.9 °F (4:52 am)
Dewpoint-0.9 °F1.9 °F (4:52 pm)-6 °F (6:52 am)
Humidity60.1 %87 % (1:52 am)38 % (1:52 pm)
Barometer30.40 in30.43 in (7:52 am)30.37 in (1:52 am)
Wind Speed2.4 mph6.9 mph (1:52 pm)
Weather ElementAverage
Visibility9.9 mi
Wind DirectionSSE (154.3 °)

Weather ElementTotal
Precipitation0.18 in
Heating Degree Days54 (Base 65)
Averaged from 23 records on February 3, 2014
WEATHER CONDITIONS BREAKOUT
WIND DIRECTION BREAKOUT
WEATHER BY HOUR - FEBRUARY 3, 2014
[ °C ]   °F
Local TimeTemperatureDewpointHumidityBarometerVisibilityWind DirectionWind SpeedGust SpeedPrecipitationEventsConditions
1:52 AM1.0 °F-2.0 °F87 %30.37 in9.0 miNNW (330°)3.5 mphClear
2:52 AM0.0 °F-4.0 °F83 %30.37 inCalmClear
3:52 AM0.0 °F-4.0 °F83 %30.37 in9.0 miCalmClear
4:52 AM-0.9 °F-5.1 °F83 %30.38 inNW (320°)4.6 mphClear
5:52 AM0.0 °F-5.1 °F79 %30.39 in10.0 miNNW (330°)3.5 mphClear
6:52 AM0.0 °F-6.0 °F76 %30.40 in10.0 miNW (320°)3.5 mphClear
7:52 AM3.0 °F-4.0 °F73 %30.43 in10.0 miNW (320°)4.6 mphClear
8:52 AM6.1 °F-0.9 °F73 %30.43 in10.0 miNW (320°)3.5 mphClear
9:52 AM12.0 °F-0.9 °F56 %30.42 in10.0 miCalmClear
10:52 AM16.0 °F-0.9 °F47 %30.41 in10.0 miCalmClear
11:52 AM19.0 °F-0.9 °F42 %30.40 in10.0 miCalm0.01 inClear
12:52 PM21.0 °F1.0 °F42 %30.39 in10.0 miCalm0.07 inClear
1:52 PM21.9 °F0.0 °F38 %30.38 in10.0 miSSW (200°)6.9 mph0.07 inClear
2:52 PM21.9 °F1.0 °F40 %30.37 in10.0 miSouth (190°)3.5 mph0.02 inClear
3:52 PM23.0 °F1.0 °F39 %30.39 in10.0 miWSW (250°)5.8 mph0.01 inClear
4:52 PM21.0 °F1.9 °F44 %30.39 in10.0 miSW (230°)3.5 mphClear
5:52 PM18.0 °F1.9 °F50 %30.40 in10.0 miWest (260°)4.6 mphClear
6:52 PM16.0 °F1.0 °F52 %30.43 in10.0 miWest (280°)4.6 mphClear
7:52 PM14.0 °F1.0 °F56 %30.40 in10.0 miCalmClear
8:52 PM12.9 °F1.0 °F59 %30.40 in10.0 miCalmClear
9:52 PM12.9 °F1.9 °F62 %30.41 in10.0 miSSW (200°)3.5 mphClear
10:52 PM12.9 °F1.0 °F59 %30.42 inCalmClear
11:52 PM12.9 °F1.0 °F59 %30.43 inCalmClear
Hourly data recorded from KPWK, located miles away from Chicago, Illinois







STORIES FROM OUR PARTNERS